| time (UTC) | temp F | wind direction | speed MPH | gust MPH | rain 1hr in | rain 24hr in | rain mn in | humidity % | barometer mb |
| 20260507163356 | 58 | 157 | 3.0 | 9.0 | 0.00 | 0.00 | 0.00 | 58 | 1013.6 |
| 20260507160357 | 57 | 139 | 2.0 | 9.0 | 0.00 | 0.00 | 0.00 | 56 | 1013.7 |
| 20260507153352 | 57 | 78 | 2.0 | 7.0 | 0.00 | 0.00 | 0.00 | 59 | 1013.8 |
| 20260507150352 | 57 | 148 | 2.0 | 8.0 | 0.00 | 0.00 | 0.00 | 59 | 1014.0 |
| 20260507143351 | 56 | 200 | 2.0 | 9.0 | 0.00 | 0.00 | 0.00 | 60 | 1014.2 |
| 20260507133352 | 57 | 226 | 1.0 | 7.0 | 0.00 | 0.00 | 0.00 | 60 | 1014.5 |
| 20260507130351 | 56 | 109 | 2.0 | 10.0 | 0.00 | 0.00 | 0.00 | 61 | 1014.6 |
| 20260507123352 | 56 | 113 | 2.0 | 8.0 | 0.00 | 0.00 | 0.00 | 63 | 1014.7 |
| 20260507120351 | 55 | 186 | 3.0 | 9.0 | 0.00 | 0.00 | 0.00 | 65 | 1014.9 |
| 20260507113351 | 54 | 124 | 3.0 | 8.0 | 0.00 | 0.00 | 0.00 | 67 | 1015.0 |
| 20260507110404 | 53 | 192 | 2.0 | 8.0 | 0.00 | 0.00 | 0.00 | 68 | 1015.1 |
| 20260507103351 | 52 | 88 | 2.0 | 8.0 | 0.00 | 0.00 | 0.00 | 71 | 1015.3 |
| 20260507101726 | 50 | 132 | 2.0 | 6.0 | 0.00 | 0.00 | 0.00 | 78 | 1015.2 |
| 20260507093348 | 49 | 209 | 2.0 | 7.0 | 0.00 | 0.00 | 0.00 | 82 | 1015.2 |
| 20260507090347 | 47 | 106 | 2.0 | 9.0 | 0.00 | 0.00 | 0.00 | 84 | 1015.2 |
| 20260507083347 | 46 | 76 | 1.0 | 7.0 | 0.00 | 0.00 | 0.00 | 86 | 1015.2 |
| 20260507080346 | 45 | 127 | 2.0 | 7.0 | 0.00 | 0.00 | 0.00 | 87 | 1015.3 |
| 20260507073345 | 44 | 106 | 2.0 | 7.0 | 0.00 | 0.00 | 0.00 | 89 | 1015.3 |
| 20260507070345 | 44 | 98 | 1.0 | 6.0 | 0.00 | 0.00 | 0.00 | 90 | 1015.1 |
| 20260507063346 | 44 | 184 | 1.0 | 5.0 | 0.00 | 0.00 | 0.00 | 90 | 1015.0 |
| 20260507061720 | 43 | 123 | 1.0 | 7.0 | 0.00 | 0.00 | 0.00 | 91 | 1014.9 |
| 20260507053345 | 42 | 173 | 1.0 | 5.0 | 0.00 | 0.00 | 0.00 | 92 | 1014.9 |
| 20260507050345 | 40 | 96 | 0.0 | 0.0 | 0.00 | 0.00 | 0.00 | 92 | 1014.8 |
| 20260507043345 | 40 | 96 | 0.0 | 2.0 | 0.00 | 0.00 | 0.00 | 91 | 1014.8 |
| 20260507040345 | 41 | 96 | 0.0 | 4.0 | 0.00 | 0.00 | 0.00 | 90 | 1014.7 |
| 20260507033346 | 41 | 96 | 1.0 | 4.0 | 0.00 | 0.00 | 0.00 | 89 | 1014.8 |
| 20260507031731 | 41 | 128 | 1.0 | 3.0 | 0.00 | 0.00 | 0.00 | 88 | 1014.9 |
| 20260507023345 | 41 | 140 | 0.0 | 5.0 | 0.00 | 0.00 | 0.00 | 88 | 1014.9 |
| 20260507021724 | 42 | 196 | 1.0 | 5.0 | 0.00 | 0.00 | 0.00 | 87 | 1014.9 |
| 20260507013343 | 42 | 96 | 1.0 | 6.0 | 0.00 | 0.00 | 0.00 | 88 | 1014.9 |
| 20260507010342 | 41 | 76 | 0.0 | 4.0 | 0.00 | 0.00 | 0.00 | 89 | 1015.2 |
| 20260507003341 | 41 | 90 | 2.0 | 4.0 | 0.00 | 0.00 | 0.00 | 89 | 1015.2 |
| 20260507000343 | 41 | 161 | 1.0 | 5.0 | 0.00 | 0.00 | 0.00 | 88 | 1015.3 |
| 20260506233340 | 41 | 163 | 1.0 | 5.0 | 0.00 | 0.00 | 0.00 | 88 | 1015.4 |
| 20260506230337 | 41 | 190 | 2.0 | 7.0 | 0.00 | 0.00 | 0.00 | 87 | 1015.4 |
| 20260506223336 | 42 | 84 | 2.0 | 9.0 | 0.00 | 0.00 | 0.00 | 86 | 1015.4 |
| 20260506220336 | 42 | 120 | 2.0 | 8.0 | 0.00 | 0.00 | 0.00 | 85 | 1015.2 |
| 20260506213336 | 43 | 114 | 2.0 | 7.0 | 0.00 | 0.00 | 0.00 | 85 | 1015.1 |
| 20260506210338 | 43 | 83 | 1.0 | 6.0 | 0.00 | 0.00 | 0.00 | 83 | 1015.0 |
| 20260506203336 | 44 | 132 | 2.0 | 5.0 | 0.00 | 0.00 | 0.00 | 81 | 1014.8 |
| 20260506200338 | 45 | 126 | 1.0 | 5.0 | 0.00 | 0.00 | 0.00 | 79 | 1014.5 |
| 20260506193336 | 46 | 205 | 2.0 | 8.0 | 0.00 | 0.00 | 0.00 | 77 | 1014.2 |
| 20260506190337 | 47 | 139 | 3.0 | 8.0 | 0.00 | 0.00 | 0.00 | 75 | 1014.1 |
| 20260506183335 | 49 | 123 | 2.0 | 9.0 | 0.00 | 0.00 | 0.00 | 71 | 1014.0 |
| 20260506180337 | 49 | 120 | 2.0 | 7.0 | 0.00 | 0.00 | 0.00 | 71 | 1014.1 |
| 20260506174715 | 49 | 86 | 2.0 | 8.0 | 0.00 | 0.00 | 0.00 | 70 | 1014.0 |
| 20260506170333 | 50 | 197 | 3.0 | 7.0 | 0.00 | 0.00 | 0.00 | 68 | 1014.0 |